TimeCST,TemperatureF,Dew PointF,Humidity,Sea Level PressureIn,VisibilityMPH,Wind Direction,Wind SpeedMPH,Gust SpeedMPH,PrecipitationIn,Events,Conditions,WindDirDegrees,DateUTC
12:47 AM,24.8,21.2,86,30.06,4.0,WNW,3.5,-,N/A,,Overcast,300,2013-02-25 06:47:00
12:52 AM,24.1,21.0,88,30.12,4.0,WNW,3.5,-,N/A,,Overcast,300,2013-02-25 06:52:00
1:52 AM,24.1,21.0,88,30.12,4.0,WNW,3.5,-,N/A,,Overcast,290,2013-02-25 07:52:00
2:48 AM,24.8,21.2,86,30.04,4.0,Calm,Calm,-,N/A,,Overcast,0,2013-02-25 08:48:00
2:52 AM,24.1,21.0,88,30.10,4.0,Calm,Calm,-,N/A,,Overcast,0,2013-02-25 08:52:00
3:03 AM,24.8,21.2,86,30.04,4.0,NNW,4.6,-,N/A,,Overcast,330,2013-02-25 09:03:00
3:52 AM,23.0,21.0,92,30.10,2.5,NW,3.5,-,N/A,,Overcast,310,2013-02-25 09:52:00
4:02 AM,23.0,21.2,93,30.04,2.5,Calm,Calm,-,N/A,,Overcast,0,2013-02-25 10:02:00
4:52 AM,23.0,21.9,96,30.11,2.0,Calm,Calm,-,N/A,,Overcast,0,2013-02-25 10:52:00
5:17 AM,24.8,21.2,86,30.07,1.8,WSW,4.6,-,N/A,,Overcast,240,2013-02-25 11:17:00
5:52 AM,23.0,21.9,96,30.11,1.5,NNW,4.6,-,N/A,,Overcast,330,2013-02-25 11:52:00
6:02 AM,23.0,21.2,93,30.05,0.8,NNW,5.8,-,N/A,,Overcast,340,2013-02-25 12:02:00
6:52 AM,23.0,21.0,92,30.12,0.5,NW,5.8,-,N/A,Fog,Light Freezing Fog,310,2013-02-25 12:52:00
7:52 AM,23.0,21.0,92,30.14,0.2,NW,6.9,-,N/A,Fog,Light Freezing Fog,320,2013-02-25 13:52:00
8:52 AM,21.9,21.0,96,30.13,0.2,NW,8.1,-,N/A,Fog,Light Freezing Fog,310,2013-02-25 14:52:00
10:42 AM,23.0,21.2,93,30.08,1.0,NW,4.6,-,N/A,,Overcast,320,2013-02-25 16:42:00
10:52 AM,23.0,21.0,92,30.14,1.5,NW,3.5,-,N/A,,Overcast,320,2013-02-25 16:52:00
11:06 AM,24.8,21.2,86,30.07,2.0,Calm,Calm,-,N/A,,Overcast,0,2013-02-25 17:06:00
11:19 AM,24.8,21.2,86,30.07,1.8,Calm,Calm,-,N/A,,Overcast,0,2013-02-25 17:19:00
11:37 AM,24.8,21.2,86,30.08,2.0,NW,6.9,-,N/A,,Overcast,310,2013-02-25 17:37:00
11:52 AM,24.1,21.0,88,30.14,2.0,North,5.8,-,N/A,,Overcast,360,2013-02-25 17:52:00
12:01 PM,24.8,21.2,86,30.07,1.8,North,4.6,-,N/A,,Overcast,10,2013-02-25 18:01:00
12:47 PM,24.8,21.2,86,30.05,0.8,NNW,5.8,-,N/A,,Overcast,330,2013-02-25 18:47:00
12:52 PM,24.1,21.9,91,30.11,1.0,North,5.8,-,N/A,,Overcast,350,2013-02-25 18:52:00
1:04 PM,24.8,21.2,86,30.04,1.2,North,4.6,-,N/A,,Overcast,10,2013-02-25 19:04:00
1:49 PM,24.8,21.2,86,30.03,1.0,NE,4.6,-,N/A,,Overcast,50,2013-02-25 19:49:00
1:52 PM,24.1,21.0,88,30.09,1.0,ENE,5.8,-,N/A,,Overcast,60,2013-02-25 19:52:00
2:02 PM,24.8,21.2,86,30.03,1.2,NE,6.9,-,N/A,,Overcast,50,2013-02-25 20:02:00
2:52 PM,23.0,21.0,92,30.09,1.5,Calm,Calm,-,N/A,,Overcast,0,2013-02-25 20:52:00
3:42 PM,24.8,21.2,86,30.04,2.0,ENE,3.5,-,N/A,,Overcast,60,2013-02-25 21:42:00
3:52 PM,24.1,21.0,88,30.10,2.0,NNE,3.5,-,N/A,,Overcast,20,2013-02-25 21:52:00
4:52 PM,24.1,21.0,88,30.08,2.5,NE,5.8,-,N/A,,Overcast,40,2013-02-25 22:52:00
5:17 PM,24.8,21.2,86,30.02,3.0,NNE,5.8,-,N/A,,Overcast,30,2013-02-25 23:17:00
5:26 PM,24.8,21.2,86,30.02,3.0,NE,4.6,-,N/A,,Overcast,50,2013-02-25 23:26:00
5:52 PM,24.1,21.0,88,30.08,3.0,ENE,4.6,-,N/A,,Overcast,60,2013-02-25 23:52:00
6:52 PM,24.1,19.9,84,30.09,5.0,ENE,5.8,-,N/A,,Overcast,60,2013-02-26 00:52:00
7:52 PM,23.0,19.9,88,30.08,6.0,NNE,6.9,-,N/A,,Overcast,20,2013-02-26 01:52:00
8:52 PM,23.0,19.9,88,30.05,6.0,NNE,8.1,-,N/A,,Overcast,30,2013-02-26 02:52:00
9:52 PM,24.1,19.9,84,30.04,4.0,NE,10.4,-,N/A,,Overcast,40,2013-02-26 03:52:00
10:52 PM,23.0,19.9,88,30.03,4.0,ENE,12.7,-,N/A,,Overcast,60,2013-02-26 04:52:00
11:52 PM,23.0,19.9,88,30.05,4.0,ENE,9.2,-,N/A,,Overcast,60,2013-02-26 05:52:00